Regional Weather Roundup
Issued by NWS

Home | Current Version | Previous Version | Text Only | Print | Product List | Glossary On
Versions: 1 2 3 4 5 6 7 8 9 10 11 12 13 14 15 16 17 18 19 20 21 22 23 24 25 26 27 28 29 30 31 32 33 34 35 36 37 38 39 40 41 42 43 44 45 46 47 48 49 50
000
ASHW40 PHFO 191343
RWRHI

WEATHER ROUNDUP FOR HAWAII
NATIONAL WEATHER SERVICE HONOLULU HI
300 AM HST THU APR 19 2018

THIS IS AN AUTOMATED REPORT THAT HAS NOT BEEN QUALITY CONTROLLED.

NOTE..."FAIR" INDICATES FEW OR NO CLOUDS BELOW 12,000 FEET WITH NO
SIGNIFICANT WEATHER AND/OR OBSTRUCTIONS TO VISIBILITY.

* - THESE SITES REPORT LIMITED FIELDS
# - BUOY DATA PROVIDED BY PACIFIC ISLANDS OCEAN OBSERVING SYSTEM.

HIZ001>004-191400-
KAUAI-NIIHAU-

CITY           SKY/WX    TMP DP  RH WIND       PRES   REMARKS
LIHUE APT      CLOUDY    75  69  81 E15       30.03F
PORT ALLEN*      N/A     73 N/A N/A NE18G25     N/A
POIPU*           N/A     73 N/A N/A E8G18       N/A
PRINCEVILLE*     N/A     70 N/A N/A SE5         N/A
KOKOLE POINT*  NOT AVBL
MOLOAA DAIRY*    N/A     72  68  88 E7G14       N/A
WAIMEA HTS*      N/A     72  64  78 NE6G12      N/A
PUU OPAE*        N/A     64  59  82 NE2         N/A
PUU LUA*       NOT AVBL
MAKAHA RIDGE*    N/A     66  64  94 CALM        N/A
$$

HIZ005>011-191400-
OAHU-

CITY           SKY/WX    TMP DP  RH WIND       PRES   REMARKS
HONOLULU       MOCLDY    75  66  73 NE14      30.01S
KALAELOA       MOCLDY    72  67  84 NE6       30.02F
KANEOHE MCB    CLOUDY    75  68  78 E12       30.00F
WHEELER FIELD  FAIR      68  68  99 CALM      30.02F
BELLOWS*         N/A    N/A N/A N/A E20         N/A
KAHUKU*          N/A    N/A N/A N/A NE8G17      N/A
WHEELER*         N/A    N/A N/A N/A N2          N/A
WAIANAE HARBOR   N/A    N/A N/A N/A NE9G18      N/A
DILLINGHAM*    NOT AVBL
KAHUKU TRN*      N/A     72  66  83 W6G15       N/A
KAWAILOA*      NOT AVBL
KII*             N/A     73  66  78 E15G21      N/A
MAKUA RANGE*     N/A     72  61  68 SE12G17     N/A
OAHU FOREST NW   N/A     66  63  88 NE16G32     N/A
SCHOFIELD BRK*   N/A     68  66  94 CALM        N/A
SCHOFIELD S*   NOT AVBL
WAIANAE VLY*     N/A    N/A N/A N/A S12G29      N/A
KUAOKALA*        N/A     70  64  83 NE16G26     N/A
HONOULIUULI*   NOT AVBL
MOKUOLOE IS*   NOT AVBL
PALEHUA*         N/A     63  63 100 NE14G26     N/A
WAIAWA PHB*    NOT AVBL
$$

HIZ012>013-191400-
MOLOKAI-

CITY           SKY/WX    TMP DP  RH WIND       PRES   REMARKS
MOLOKAI AIRPT    N/A     73  67  81 NE14G22   30.01F
KALAUPAPA      NOT AVBL
MAKAPULAPAI*     N/A     73  66  78 E20G29      N/A
MOLOKAI 1*       N/A    N/A N/A N/A E3          N/A
PUU ALII*        N/A     58  58  99 NE3G12      N/A
$$

HIZ016-191400-
KAHOOLAWE-

CITY           SKY/WX    TMP DP  RH WIND       PRES   REMARKS
KAHOOLAWE*     NOT AVBL
HAKIOAWA*        N/A     68  65  89 MISG      30.41F
HONOKANAIA*    NOT AVBL
KANELOA*         N/A     70  64  83 E18G35    30.05F
KEALIALALO*    NOT AVBL
LUA MAKIKA*    NOT AVBL
$$

HIZ014>015-191400-
LANAI-

CITY           SKY/WX    TMP DP  RH WIND       PRES   REMARKS
LANAI CITY     MOCLDY    68  64  87 NE10      30.04F
LANAI 1*       NOT AVBL
$$

HIZ017>028-191400-
MAUI-

CITY           SKY/WX    TMP DP  RH WIND       PRES   REMARKS
KAHULUI        MOCLDY    72  68  87 E13       30.00F
KAPALUA-W MAUI NOT AVBL
HANA AIRPORT   NOT AVBL
HANA*            N/A     72 N/A N/A E6G12       N/A
HALEAKALA SUMM   N/A     43  25  49 E14         N/A
MAALAEA BAY*     N/A     73 N/A N/A N18G28      N/A
HALEAKALA*     NOT AVBL
KAUPO GAP*     NOT AVBL
KULA 1*          N/A     48  45  87 E3          N/A
$$

HIZ023>026-191400-
BIG ISLAND OF HAWAII COAST AND LOWER SLOPES-

CITY           SKY/WX    TMP DP  RH WIND       PRES   REMARKS
KAILUA KONA    CLOUDY    75  66  73 CALM      29.95F
HILO           CLOUDY    70  67  90 W5        30.02S
HONOKAA*         N/A     66 N/A N/A VRB1        N/A
KAWAIHAE MWT*    N/A     77 N/A N/A E6G14       N/A
KAWAIHAE*        N/A     75 N/A N/A SE5       29.94S
SOUTH POINT*     N/A     68 N/A N/A N15G21      N/A
UPOLU AIRPORT* NOT AVBL
KAMUELA*       MOSUNNY   63  61  94 NE13      30.07S
HAKALAU*         N/A     50  50 100 S6          N/A
KALOKO-HONOKO*   N/A     72  66  83 CALM      29.94F
PALI 2*          N/A     64  59  82 N9G17       N/A
KEALAKOMO*       N/A     73  63  68 N12G18      N/A
KAUPULEHU*       N/A     66  63  88 SE5         N/A
KAPAPALA*        N/A     61  59  94 NW6         N/A
LOWER KAHUKU*    N/A     59  57  94 N3G12       N/A
PUHE CS*         N/A     75  63  64 E5G18       N/A
PUHO CS*         N/A     70  64  81 E2          N/A
PTA KEAMUKU*     N/A     57  54  88 S7          N/A
WAIKOLOA*        N/A     66  61  82 SE8G20      N/A
$$

HIZ027>028-191400-
BIG ISLAND OF HAWAII INTERIOR AND SUMMMITS-

CITY           SKY/WX    TMP DP  RH WIND       PRES   REMARKS
BRADSHAW FIELD NOT AVBL
MK VISITOR CEN   N/A     48  18  29 E8          N/A
MAUNA KEA*       N/A     32  14  47 CALM        N/A
MAUNA LOA*     NOT AVBL
MAUNA LOA 1*   NOT AVBL
PTA KIPUKA*      N/A     70  68  94 W1          N/A
PTA RANGE 17*    N/A     55  52  88 W5G12       N/A
PTA WEST*        N/A     55  52  88 SW3G16      N/A
NENE CABIN*      N/A     48  46  93 NE6G12      N/A
AHUMOA*          N/A     48  46  93 NE7         N/A
PTA PORTABLE*  NOT AVBL
PUU MALI*        N/A     52  43  71 SW8         N/A
$$

HIC003-191400-
NORTHWEST ISLANDS-

CITY           SKY/WX    TMP DP  RH WIND       PRES   REMARKS
MIDWAY ISLAND  MOCLDY    66  57  72 E14       30.19F
MIDWAY NOS*      N/A     66 N/A N/A MISG      30.17F
FRENCH FRIGATE NOT AVBL
$$

PHZ110>124-180-191400-
BUOY REPORTS

STATION/POSITION TIME  TEMP    WIND        PRES    WAVE   SWELL
                       AIR SEA DIR/SP/G            HT/PER HT/DIR
                 (UTC) (F)     (DEG/KT/KT) (MB)    (FT/S) (FT/D)
BUOY 51001       1310   80 81   70/ 12/ 14 1009.1
BUOY 51101       1250   72 73   90/ 12/ 16 1018.5F   7/ 9   7
BUOY 51100       NOT AVBL
BUOY 51002       1310   78 78   70/ 17/ 21 1013.2
BUOY 51003       1250   77 79  120/ 12/ 14 1014.3F   7/ 8   7/110
BUOY 51004       1310   77 79   80/ 16/ 19   N/A
WAIMEA BAY#      NOT AVBL
MOKAPU POINT#    1304      76                N/A     7/ 8   2/ 90
LANAI#           NOT AVBL
BARBERS PT 2#    NOT AVBL
PAUWELA#         1300      75                N/A     8/ 9   2/ 80
HILO#            1327      76                N/A     7/ 9   2/ 90
KANEOHE BAY#     NOT AVBL
KANEOHE BAY 2#   NOT AVBL
HANALEI#         1322      77                N/A     7/ 9   3/350
KAHULUI HARBOR   1312   73 76   60/  7/ 12 1016.0
HONOLULU HARBOR  1312   73 77   50/  4/  8 1015.6
PEARL HARBOR#    1300      77                N/A     3/ 7   2/170
KILO NALU        NOT AVBL
HILO HARBOR      1312   69 75  210/  5/  7 1015.7
MOKUOLOE         1236   75 77   80/  8/ 11 1016.8F
NAWILIWILI       1312   74 78   60/ 13/ 16 1016.3
WHOTS BUOY       NOT AVBL
BUOY 51028       NOT AVBL
$$

......................KEY........................................
  SKY/WX - SKY CONDITIONS/PRESENT WEATHER
  TMP    - TEMPERATURE IN FAHRENHEIT
  DWPT   - DEWPOINT IN FAHRENHEIT
  RH     - RELATIVE HUMIDITY IN PERCENT
  WIND   - DIRECTION AND SPEED /MPH FOR ISLANDS...KTS FOR BUOYS/
  PRES   - MEAN SEA LEVEL PRESSURE IN INCHES OF HG
  VSB    - VISIBILITY IN MILES
  HX     - HEAT INDEX
  WCI    - WIND CHILL INDEX
  VRB    - VARIABLE WIND DIRECTION
  N/A    - NOT AVAILABLE




USA.gov is the U.S. government's official web portal to all federal, state and local government web resources and services.